Garden City Regional Airport
KGCK : rendu visible

Aérodrome :











RETROUVEZ-NOUS SUR...

 
LOGIN :

S'inscrire | Disclaimer

   EN    FR    IT 

 









Légende :    VFR   VFR Marginal   IFR   IFR Intensif   IFR Très Intensif
Visi : 
Plafond : 
>= 8 km
>= 3000ft
5 à 8 km
1000 à 3000 ft
1500m à 5 km
500 à 1000 ft
800 à 1500m
200 à 500 ft
< 800m
< 200 ft
Symboles :   Orages  Brouillard  Fortes neiges  Fortes précipitations  Vent > 20 kt






- Altitude de l'aérodrome : 2891 ft
- Code IATA : GCK


KGCK - Garden City Regional

DERNIER METAR :
  • 271954Z VRB03KT 10SM OVC041 M02/M09 A3018 RMK AO2 SLP250 T10171089

METARs EXPIRÉS :
  • 271854Z 31006KT 10SM OVC042 M02/M08 A3023 RMK AO2 SLP268 T10171078
  • 271754Z 28006KT 10SM OVC043 M03/M09 A3026 RMK AO2 SLP281 T10281094 11028 21078 58012

TAF KGCK
Valide du 27 à 18h jusqu'au 28 à 18h UTC


271720Z 2718/2818 VRB04KT P6SM BKN090
FM281100 32005KT 6SM FZRA BR OVC040
FM281700 36006KT 6SM RA BR OVC035
FIR KZKC / Amérique du Nord



MET'MAP, la Météo Aéronautique d'un coup d'oeil ! - Copyright ORBIFLY Décembre 2007 - Disclaimer

ORBIFLY MET'MAP TEAM :

Programmation & Développement : Alexandra Zaïnal
Sur une idée originale de : Baudouin d'Aumeries
Assistance à la programmation : Marc-Olivier Méhu
Soutien technique & logistique : Manuel Goepfert

Contact : metmap@orbifly.com




SOURCES & CREDITS :

   NOAA       Earth
Advisory